Regional Weather Roundup
Issued by NWS Upton, NY

Home | Current Version | Previous Version | Text Only | Print | Product List | Glossary On
Versions: 1 2 3 4 5 6 7 8 9 10 11 12 13 14 15 16 17 18 19 20 21 22 23 24 25 26 27
000
ASUS41 KOKX 270109
RWROKX

REGIONAL WEATHER ROUNDUP
NATIONAL WEATHER SERVICE NEW YORK NY
900 PM EDT MON JUN 26 2017

NOTE: "FAIR" INDICATES FEW OR NO CLOUDS BELOW 12,000 FEET WITH NO
SIGNIFICANT WEATHER AND/OR OBSTRUCTIONS TO VISIBILITY.

NYZ071-072-176-178-NJZ106-104-270200-
NEW YORK CITY METRO AREA

CITY           SKY/WX    TMP DP  RH WIND       PRES   REMARKS
Central Park   CLEAR     74  46  36 MISG      29.99F
Bronx Bot Gard   N/A     68  57  68 SE1       29.97F
LaGuardia APRT PTCLDY    72  62  71 S10       29.96F
Kennedy INTL   PTCLDY    69  65  86 S16       29.98F
Breezy Point     N/A     64 N/A N/A S9          N/A
Newark/Liberty PTCLDY    75  45  34 SW8       29.96F
Teterboro      CLEAR     75  46  35 SW7       29.96S
$$

NYZ177-179-078>081-270200-
LONG ISLAND NEW YORK

CITY           SKY/WX    TMP DP  RH WIND       PRES   REMARKS
Jones Beach      N/A     68 N/A N/A S10G16      N/A
Matinecock PT  NOT AVBL
Farmingdale    NOT AVBL
MacArthur/ISP  PTCLDY    70  61  73 SW9       29.98F
Shirley        CLEAR     69  59  70 S6        30.00S
Mt Sinai Harb    N/A    N/A N/A N/A S8          N/A
Westhampton    CLEAR     68  56  65 SW9       30.02R
East Hampton   FAIR      65  59  81 SW3       29.99F
Montauk          N/A     68  61  78 VRB7      30.01S
$$

NYZ052-065-067-270200-
HUDSON VALLEY

CITY           SKY/WX    TMP DP  RH WIND       PRES   REMARKS
White Plains   CLEAR     67  55  65 S5        29.98S
Larchmont Harb   N/A     68 N/A N/A S12         N/A
Croton O-T Hud   N/A     75 N/A N/A SW9         N/A
Newburgh       PTCLDY    70  52  52 SW9       29.98R
Montgomery     CLEAR     66  51  58 CALM      29.96S
Poughkeepsie   PTCLDY    69  49  48 S3        29.95R
Albany         CLOUDY    61  55  81 N3        29.96F
$$

NJZ001-105-106-008-010-013-015-019>022-104-270200-
NEW JERSEY

CITY           SKY/WX    TMP DP  RH WIND       PRES   REMARKS
Newark/Liberty PTCLDY    75  45  34 SW8       29.96F
Teterboro      CLEAR     75  46  35 SW7       29.96S
Caldwell       CLEAR     73  48  41 CALM      29.97F
Somerville     CLEAR     65  55  70 CALM      29.96S
Linden         FAIR      75  44  33 CALM      29.97S
Perth Amboy      N/A     73 N/A N/A W8          N/A
Sussex         CLEAR     65  53  65 CALM      29.97S
Andover          N/A     63  55  75 CALM      29.99R
Trenton        CLEAR     74  48  39 W3        29.99R
Millville      CLEAR     68  57  68 CALM      30.00S
Atlantic City  CLEAR     73  53  49 S7        30.00F
Wrightstown    CLEAR     67  55  64 SW3         N/A
Toms River     CLEAR     65  56  72 CALM      30.00F
Belmar         CLEAR     72  51  47 SW6       30.00S
$$

PAZ047>061-062-071-270200-
EASTERN PENNSYLVANIA

CITY           SKY/WX    TMP DP  RH WIND       PRES   REMARKS
Philadelphia   PTCLDY    76  50  40 S6        29.99S
Allentown      CLEAR     65  50  58 SW5       29.98S
Scranton       CLEAR     69  48  47 SW7       29.96F
$$

CTZ002-004>006-009-010-012-RIZ004-006-007-MAZ004-011-015-270200-
SOUTHERN NEW ENGLAND
 IN CT

CITY           SKY/WX    TMP DP  RH WIND       PRES   REMARKS
Bradley INTL   PTCLDY    71  50  47 S8        29.96R
Hartford       CLEAR     71  52  50 S8        29.96R
Danbury        NOT AVBL
Wtrbury/Oxford PTCLDY    66  48  52 SW7       29.99S
Bridgeport     CLEAR     72  54  53 S13       29.98R
Meriden        CLEAR     69  52  54 S8        29.98R
New Haven      CLEAR     70  58  65 VRB3      29.99R
Chester        FAIR      68  55  64 SW7       29.99S
Groton         CLEAR     66  59  78 SW6       29.98S
Wilimantic     CLEAR     72  53  51 S7        29.98R

 IN RI

CITY           SKY/WX    TMP DP  RH WIND       PRES   REMARKS
Providence     PTCLDY    69  54  58 SW8       29.98R
Block Island   CLEAR     65  61  87 SW12      30.00S
Westerly       CLEAR     68  58  70 CALM      30.00R
 IN MA

CITY           SKY/WX    TMP DP  RH WIND       PRES   REMARKS
Boston         MOCLDY    74  53  48 SW16      29.96R
Worcester      PTCLDY    65  51  60 W5        29.99R
Westfield      CLOUDY    68  56  65 NE3       29.96S
Provincetown   CLEAR     66  59  78 S12       29.99R
Nantucket      CLEAR     63  62  97 SW10      30.01S
$$

ANZ330-335-338-340-345-350-353-355-270200-
COASTAL MARINE OBSERVATIONS


STATION/POSITION TIME  SKY/WX   TEMP    WIND        PRES    VSBY  WAVE
                                AIR SEA DIR/SP/G                  HT/PER
                 (UTC)          (F)     (DEG/KT/KT) (MB)    (MI)  (FT/S)
NY HARB ENTRANCE 2350            69 68  180/ 14/ 17 1015.3          2/ 3
20 S FIRE ISLAND 2350            70 70  180/ 14/ 16 1015.5          2/ 3
GREAT SOUTH BAY  0030            70 76  200/ 16/ 19   N/A
23 SSW MONTAUK P 2350            68 67              1016.3          3/ 7
15 E BARNEGAT LI 0030               65                N/A           2/ 6
HUDSON CANYON    2350            70 71  170/  8/  8 1016.5          2/ 7
KINGS POINT      0030            70 67  210/ 12/ 14 1014.8
EXECUTION ROCKS  0030            71     170/ 10/ 16   N/A
CENTRAL LI SOUND NOT AVBL
EASTERN LI SOUND NOT AVBL
ROBBINS REEF     0030                   240/ 12/ 16 1015.4
$$


>>>>>>>>>>>>>>>>>>>>>>>>>>>> KEY <<<<<<<<<<<<<<<<<<<<<<<<<<<
>                                                          <
>     SKY/WX - Sky Condition/Present Weather               <
>     TMP    - Temperature in Fahrenheit                   <
>     DP     - Dew Point in Fahrenheit                     <
>     RH     - Relative Humidity in Percent                <
>     WIND   - Direction (from) and Speed in MPH           <
>     PRES   - Mean Sea Level Pressure (inches of Hg)      <
>     WCI    - Wind Chill Index                            <
>     VSB    - VISIBILITY IN MILES                         <
>     HX     - HEAT INDEX                                  <
>     TC     - TEMPERATURE IN CELSIUS                      <
>     VRB    - VARIABLE WIND DIRECTION                     <
>                                                          <
>>>>>>>>>>>>>>>>>>>>>>>>>>>> KEY <<<<<<<<<<<<<<<<<<<<<<<<<<<




USA.gov is the U.S. government's official web portal to all federal, state and local government web resources and services.